Regional Weather Roundup
Issued by NWS Grand Forks, ND

Home | Current Version | Previous Version | Text Only | Print | Product List | Glossary Off
Versions: 1 2 3 4 5 6 7 8 9 10 11 12 13 14 15 16 17 18 19 20 21 22 23 24 25 26 27 28 29 30 31 32 33 34 35 36 37 38 39 40 41 42 43 44 45 46 47 48 49 50

000
ASUS43 KFGF 131731
RWRFGF
PRAIRIE TO PINES  WEATHER ROUNDUP
NATIONAL WEATHER SERVICE EASTERN NORTH DAKOTA/GRAND FORKS ND
1100 AM CST SAT FEB 13 2016

 **SATELLITE DATA USED TO AUGMENT SKY COVER AT AUTOMATED STATIONS**
 *****  WEATHER ACROSS EASTERN NORTH DAKOTA  *****

CITY           SKY/WX    TMP DP  RH WIND       PRES   REMARKS
GRAND FORKS    CLOUDY     0  -9  65 S16       30.47F WCI -20
GRAND FRKS AFB CLOUDY     0  -9  67 S16       30.44F WCI -20
DEVILS LAKE    CLOUDY     1  -7  68 SE23      30.30F WCI -22
FARGO          SUNNY      3  -8  60 SE15      30.49F WCI -16
WAHPETON ARPT  MOSUNNY    5  -4  66 SE18      30.50F WCI -15
$$

 ***** WEATHER ACROSS CENTRAL AND WESTERN NORTH DAKOTA  *****

CITY           SKY/WX    TMP DP  RH WIND       PRES   REMARKS
BISMARCK       CLOUDY    13   0  56 SE18      30.18F WCI  -4
MINOT          CLOUDY    15   1  53 SE15      30.11F WCI   0
JAMESTOWN      CLOUDY     4  -5  66 SE16      30.31F WCI -15
MINOT AFB      CLOUDY    14   4  64 SE15      30.10F WCI  -2
GARRISON         N/A     10   5  80 S22G30    30.09F WCI -10
WILLISTON      PTSUNNY   19  11  70 SE15      29.94F WCI   5
DICKINSON      LGT SNOW  13   9  84 S21G29    29.95F FOG     WCI  -5
HETTINGER      FOG       16  14  92 SE13      30.00F VSB 3/4 WCI   2
$$

 *****  OTHER AIRPORT OBSERVATIONS IN OUR AREA  *****

CITY           SKY/WX    TMP DP  RH WIND       PRES   REMARKS
WALHALLA       FAIR       0  -8  71 S13       30.39F WCI -18
GRAFTON AIRPOR FAIR       0  -8  71 S16       30.46F WCI -21
VALLEY CITY AR FLURRIES   1  -4  78 SE16G22   30.38F WCI -18
CANDO          CLOUDY     0  -4  85 SE18      30.29F WCI -22
CAVALIER APRT  FAIR       0  -6  78 S21       30.42F WCI -23
GWINNER        PTSUNNY    5   0  78 SE17      30.40F WCI -14
SHEYENNE NWR     N/A      3  -7  63 SE12      29.95S WCI -13
ROLLA          CLOUDY    -2  -9  71 S16G22    30.22F WCI -23
 ***** THE ABOVE OBSERVATIONS ARE NON NWS ARE NOT QUALITY
       CONTROLLED AND MAY MIS-REPORT RAIN FOR SNOW...
$$

  *****  WEATHER ACROSS NORTHERN MINNESOTA  *****

CITY           SKY/WX    TMP DP  RH WIND       PRES   REMARKS
FLAG ISLAND    CLOUDY   -15 -20  76 SE8       30.50F WCI -32
WARROAD        CLOUDY    -6 -17  59 CALM      30.50F
ROSEAU         CLOUDY    -6 -11  77 SE5       30.49F WCI -17
HALLOCK        CLOUDY    -2 -11  65 SE16      30.46F WCI -23
THF RVR FALLS  CLOUDY    -4  -8  84 SE13      30.47F WCI -23
BAUDETTE       CLOUDY    -6 -17  59 S5        30.49F WCI -17
WASKISH        CLOUDY    -2 -13  60 CALM      30.49F
CROOKSTON      CLOUDY    -2 -11  65 S12       30.49F WCI -20
STEPHEN NDAWN    N/A     -2  -9  71 SE13        N/A  WCI -21
GREENBUSH NDAW   N/A     -4 -15  59 SE13        N/A  WCI -23
$$
  *****  WEATHER ACROSS CENTRAL AND WEST MINNESOTA  *****

CITY           SKY/WX    TMP DP  RH WIND       PRES   REMARKS
FOSSTON        CLOUDY     5   0  78 SE3       30.46F
BEMIDJI        CLOUDY    -4 -15  59 SE6       30.48F WCI -16
PARK RAPIDS    CLOUDY    -5 -16  59 SE7       30.48F WCI -19
ELBOW LAKE     FAIR       2  -8  64 E14       30.50F WCI -17
WADENA         CLOUDY    -2 -11  65 SE7       30.49F WCI -16
DETROIT LAKES  CLOUDY     0  -9  65 SE13      30.46F WCI -18
MOORHEAD       SUNNY      3  -8  60 S15       30.49S WCI -15
FERGUS FALLS   SUNNY      1  -9  60 SE14      30.52F WCI -17
MORRIS MN      SUNNY      3  -4  72 SE15      30.49F WCI -15
STAPLES        SUNNY     -2 -15  55 SE5       30.51F WCI -12
$$
  *****  WEATHER ELSEWHERE ACROSS MINNESOTA  *****

CITY           SKY/WX    TMP DP  RH WIND       PRES   REMARKS
DULUTH         SUNNY     -3 -16  53 W7        30.50F WCI -16
INTRNTL FALLS  SUNNY     -7 -16  65 CALM      30.52F
ELY            SUNNY     -6 -17  59 CALM      30.46F
CLOQUET        SUNNY     -2 -18  46 CALM      30.52F
WHEATON        CLOUDY     3  -2  78 SE16      30.50F WCI -16
BRAINERD       SUNNY     -5 -14  65 CALM      30.55F
HIBBING        SUNNY     -5 -18  53 N3        30.50F
ALEXANDRIA     CLOUDY    -1 -11  62 SE9       30.50F WCI -16
SAINT CLOUD    SUNNY     -2 -10  69 SE6       30.58F WCI -14
MINNEAPOLIS    SUNNY      1 -10  60 CALM      30.63F
$$

  *****  WEATHER ACROSS SOUTH DAKOTA  *****

CITY           SKY/WX    TMP DP  RH WIND       PRES   REMARKS
SIOUX FALLS    CLOUDY     5  -4  66 SE13      30.47F WCI -12
BROOKINGS      CLOUDY     4  -6  63 SE13      30.41F WCI -13
WATERTOWN      CLOUDY     5  -7  57 SE18      30.37F WCI -15
HURON          CLOUDY     9  -1  64 SE22G30   30.33F WCI -11
SISSETON         N/A      2  -5  72 S17       30.45F WCI -18
ABERDEEN       CLOUDY    10  -2  58 SE16      30.37F WCI  -7
MITCHELL       CLOUDY    10   2  69 SE20      30.40F WCI  -9
PIERRE         CLOUDY    21  15  78 SE20G26   30.15F WCI   6
MOBRIDGE       LGT SNOW  14   9  80 SE21      30.13F WCI  -4
RAPID CITY     CLOUDY    36  31  82 S9        29.93F
$$

  *****  SOME WEATHER IN NEARBY STATES *****

CITY           SKY/WX    TMP DP  RH WIND       PRES   REMARKS
GLASGOW MT     FRZ RAIN  23  19  85 SE8       29.85R FOG     WCI  14
GREAT FALLS MT CLOUDY    41  26  55 SW20      29.90F
CHEYENNE WY    MOSUNNY   56  14  19 W13G26    30.03F
SCOTTSBLUFF NE CLOUDY    36  32  85 SE9       30.02F
OMAHA NE       CLOUDY    14   4  64 SE10      30.56F WCI   1
DES MOINES IA  CLOUDY     9  -5  53 E6        30.62F WCI  -1
DAVENPORT IA   SUNNY     10  -8  44 N6        30.64F WCI   0
CHICAGO IL     MOSUNNY   10  -8  44 NW10      30.59S WCI  -4
EAU CLAIRE WI  SUNNY     -2 -13  59 CALM      30.62S
LA CROSSE WI   SUNNY      3 -12  49 N6        30.66S WCI  -8
$$

  *****  SOME NATIONAL WEATHER *****

CITY           SKY/WX    TMP DP  RH WIND       PRES   REMARKS
LA GUARDIA NY  PTSUNNY   21  -3  35 W21G33    30.06R WCI   5
RALEIGH NC     MOSUNNY   32   0  25 NW9G20    30.32R WCI  24
ATLANTA GA     SUNNY     37   7  28 NW12G24   30.39R
NEW ORLEANS LA MOSUNNY   55  31  39 NE12      30.45F
OKLAHOMA CITY  MOSUNNY   42  23  46 SE8       30.40F
ALBUQUERQUE NM MOSUNNY   48  22  35 W3        30.30F
SALT LAKE CITY FOG       30  28  92 CALM      30.34R VSB 1
LOS ANGELES CA MOSUNNY   58  56  93 CALM      30.11R
BOISE ID       SUNNY     36  34  93 CALM      30.34R FOG
SEATTLE WA     CLOUDY    48  40  73 S15       30.28S
$$

*** WEATHER ACROSS MANITOBA...SASKATCHEWAN AND ONTARIO ***
                ***ONTARIO***

CITY           SKY/WX    TMP DP  RH WIND       PRES   REMARKS
GERALDTON      MOSUNNY  -11 -22  58 NW9       30.39R WCI -29
THUNDER BAY    PTSUNNY   -4 -17  54 W13G18    30.54F WCI -23
SIOUX LOOKOUT  MOSUNNY  -11 -20  64 SW3       30.47F
TORONTO        MOSUNNY   -8 -18  59 N7        30.36S WCI -22
BIG TROUT LK   SUNNY    -15 -22  70 W6        30.40F WCI -29
PICKLE LAKE    CRYSTALS -11 -20  64 W6        30.39F WCI -25
DRYDEN         SUNNY     -9 -18  64 VRB2      30.46F
KENORA         MOSUNNY   -9 -18  64 S7        30.47F WCI -24
$$
                *** MANITOBA***

CITY           SKY/WX    TMP DP  RH WIND       PRES   REMARKS
BRANDON        PTSUNNY    0 -11  60 SE9       30.24F WCI -16
DAUPHIN        SUNNY    -11 -17  77 N3        30.25F
ISLAND LAKE    PTSUNNY   -9 -17  70 S3        30.42F
PILOT MOUND      N/A     -6 -11  77 SE17        N/A  WCI -28
THE PAS        PTSUNNY   -4 -15  59 SE20G26   30.16F WCI -27
THOMPSON       PTSUNNY   -6 -15  65 S8        30.27F WCI -21
WINNIPEG       CRYSTALS  -4 -15  59 S16G22    30.45F WCI -25
LYNN LAKE      PTSUNNY   -6 -17  59 S12       30.04F WCI -24
CHURCHILL      PTSUNNY  -11 -18  70 SW8       30.28F WCI -28
GILLAM         CLOUDY    -9 -18  64 SW10      30.34F WCI -28
$$
                ***SASKATCHEWAN***

CITY           SKY/WX    TMP DP  RH WIND       PRES   REMARKS
ESTEVAN        CLOUDY    16   9  73 SE21G28   29.98F WCI  -2
KINDERSLEY     FLURRIES  19  18  93 N14       29.73S WCI   6
LLOYDMINSTER   FOG       14  12  92 S5        29.77F VSB 1   WCI   6
PRINCE ALBERT  FLURRIES   7   0  72 E9        29.91F WCI  -7
REGINA         FLURRIES  16  10  79 S22G30    29.89F WCI  -2
YORKTON        FLURRIES   3  -2  78 SE17G28   30.00F WCI -17
N. BATTLEFORD  CLOUDY    16  12  86 SE7       29.84R WCI   6
LA RONGE       CLOUDY     0  -9  65 SE9       29.92F WCI -16
SASKATOON      CLOUDY    18  14  86 SE8       29.83S WCI   7
SWIFT CURRENT  MOSUNNY   28  25  86 SW18      29.69F WCI  16
$$
NOTE: THESE ARE AUTOMATED STATIONS WITH LIMITED QUALITY CONTROL
      "FAIR" INDICATES FEW OR NO CLOUDS BELOW 12,000 FEET WITH NO
      SIGNIFICANT WEATHER AND/OR OBSTRUCTIONS TO VISIBILITY.
      SKY/WX - SKY CONDITION AND SIGNIFICANT WEATHER.
      TMP - AIR TEMPERATURE.    DP   - DEWPOINT TEMPERATURE.
      RH  - RELATIVE HUMIDITY.  PRES - PRESSURE.
      HX  - HEAT INDEX.         WCI  - WIND CHILL INDEX.
$



USA.gov is the U.S. government's official web portal to all federal, state and local government web resources and services.